EW4427 Weather Reports


time (UTC)temp
C
wind
direction
speed
KPH
gust
KPH
rain 1hr
cm
rain 24hr
cm
rain mn
cm
humidity
%
barometer
mb
20260505041554 15 0 0.0 6.4 0.00 0.00 0.00 38 1000.6
20260505041048 15 57 0.0 6.4 0.00 0.00 0.00 38 1000.5
20260505040548 15 0 0.0 6.4 0.00 0.00 0.00 38 1000.3
20260505040056 15 0 0.0 11.3 0.00 0.00 0.00 39 1000.1
20260505035547 15 53 0.0 11.3 0.00 0.00 0.00 39 999.9
20260505035043 15 0 0.0 6.4 0.00 0.00 0.00 39 1000.1
20260505034553 16 0 0.0 4.8 0.00 0.00 0.00 40 999.9
20260505034048 16 0 0.0 4.8 0.00 0.00 0.00 42 1000.1
20260505033545 16 0 0.0 6.4 0.00 0.00 0.00 40 1000.0
20260505033058 16 0 0.0 6.4 0.00 0.00 0.00 40 1000.2
20260505032547 16 0 1.6 6.4 0.00 0.00 0.00 40 1000.3
20260505032045 16 0 0.0 6.4 0.00 0.00 0.00 41 1000.3
20260505031555 16 0 0.0 3.2 0.00 0.00 0.00 43 1000.3
20260505031047 16 0 0.0 4.8 0.00 0.00 0.00 42 1000.1
20260505030550 16 0 0.0 4.8 0.00 0.00 0.00 43 999.8
20260505030055 16 0 0.0 4.8 0.00 0.00 0.00 43 999.8
20260505025547 16 0 0.0 3.2 0.00 0.00 0.00 43 999.8
20260505025047 17 0 0.0 3.2 0.00 0.00 0.00 43 999.7
20260505024554 17 0 0.0 3.2 0.00 0.00 0.00 42 999.7
20260505024046 17 0 0.0 4.8 0.00 0.00 0.00 42 999.7
20260505023546 17 0 0.0 6.4 0.00 0.00 0.00 42 999.8
20260505023054 17 0 0.0 11.3 0.00 0.00 0.00 41 999.5
20260505022548 18 16 1.6 11.3 0.00 0.00 0.00 43 999.4
20260505022051 18 67 0.0 9.7 0.00 0.00 0.00 42 999.1
20260505021600 18 0 0.0 11.3 0.00 0.00 0.00 42 999.0
20260505021045 18 329 1.6 11.3 0.00 0.00 0.00 42 998.9
20260505020545 18 0 0.0 9.7 0.00 0.00 0.00 41 998.6
20260505020054 18 0 0.0 6.4 0.00 0.00 0.00 42 998.6
20260505015546 18 325 0.0 4.8 0.00 0.00 0.00 44 998.5
20260505015047 19 0 0.0 4.8 0.00 0.00 0.00 44 998.3
20260505014558 19 0 0.0 4.8 0.00 0.00 0.00 44 998.2
20260505014047 19 330 0.0 3.2 0.00 0.00 0.00 45 998.0
20260505013547 19 0 0.0 1.6 0.00 0.00 0.00 45 997.9
20260505013053 20 0 0.0 6.4 0.00 0.00 0.00 44 997.6
20260505012547 20 0 0.0 8.0 0.00 0.00 0.00 45 997.5
20260505012047 20 296 0.0 8.0 0.00 0.00 0.00 44 997.2
20260505011552 20 0 0.0 8.0 0.00 0.00 0.00 44 996.9
20260505011048 20 0 0.0 4.8 0.00 0.00 0.00 44 996.8
20260505010546 20 255 0.0 4.8 0.00 0.00 0.00 43 996.6
20260505010109 21 0 0.0 4.8 0.00 0.00 0.00 44 996.5
20260505005547 21 29 0.0 4.8 0.00 0.00 0.00 44 996.5
20260505005046 21 0 0.0 6.4 0.00 0.00 0.00 45 996.3
20260505004550 21 222 0.0 6.4 0.00 0.00 0.00 45 996.0
20260505004045 21 215 1.6 4.8 0.00 0.00 0.00 46 995.8
20260505003542 21 218 0.0 4.8 0.00 0.00 0.00 46 995.7
20260505003059 22 211 1.6 4.8 0.00 0.00 0.00 45 995.4
20260505002548 22 217 0.0 4.8 0.00 0.00 0.00 43 995.1
20260505002048 22 0 0.0 3.2 0.00 0.00 0.00 43 995.1
20260505001552 22 198 0.0 4.8 0.00 0.00 0.00 40 995.0
20260505001048 22 0 0.0 4.8 0.00 0.00 0.00 40 995.1
20260505000546 22 0 0.0 4.8 0.00 0.00 0.00 40 995.1
20260505000052 22 0 0.0 6.4 0.00 0.00 0.00 40 995.2
20260504235548 22 0 0.0 6.4 0.00 0.00 0.00 40 995.2
20260504235048 22 0 0.0 6.4 0.00 0.00 0.00 40 995.3
20260504234554 22 0 0.0 4.8 0.00 0.00 0.00 39 995.2
20260504234046 22 215 0.0 4.8 0.00 0.00 0.00 39 995.3
20260504233546 22 0 0.0 12.9 0.00 0.00 0.00 38 995.5
20260504233056 23 226 0.0 16.1 0.00 0.00 0.00 39 995.5
20260504232545 23 213 4.8 16.1 0.00 0.00 0.00 37 995.6
20260504232044 23 233 4.8 16.1 0.00 0.00 0.00 36 995.7
20260504231557 23 201 6.4 29.0 0.00 0.00 0.00 35 996.0
20260504231042 23 221 11.3 29.0 0.00 0.00 0.00 35 996.0
20260504230549 23 211 1.6 8.0 0.00 0.00 0.00 39 995.8
20260504230122 23 208 1.6 8.0 0.00 0.00 0.00 37 995.8
20260504225548 24 213 0.0 11.3 0.00 0.00 0.00 37 995.7
20260504225046 24 211 3.2 14.5 0.00 0.00 0.00 37 995.8
20260504224550 24 0 1.6 14.5 0.00 0.00 0.00 36 995.8
20260504224047 24 209 4.8 14.5 0.00 0.00 0.00 36 995.9
20260504223551 24 249 4.8 12.9 0.00 0.00 0.00 35 995.9
20260504223100 24 238 4.8 12.9 0.00 0.00 0.00 37 995.8
20260504222547 25 209 1.6 11.3 0.00 0.00 0.00 34 995.8
20260504222044 25 0 1.6 11.3 0.00 0.00 0.00 35 995.9
20260504221603 25 214 4.8 12.9 0.00 0.00 0.00 35 996.0
20260504221046 25 219 4.8 12.9 0.00 0.00 0.00 36 996.0
20260504220546 24 209 3.2 12.9 0.00 0.00 0.00 36 996.1
20260504220057 25 215 1.6 6.4 0.00 0.00 0.00 34 996.1
20260504215546 25 0 0.0 16.1 0.00 0.00 0.00 35 996.1
20260504215047 24 0 3.2 20.9 0.00 0.00 0.00 35 996.2
20260504214600 24 208 8.0 20.9 0.00 0.00 0.00 32 996.2
20260504214046 25 220 4.8 27.4 0.00 0.00 0.00 36 996.3
20260504213547 25 259 6.4 27.4 0.00 0.00 0.00 34 996.2
20260504213103 25 208 6.4 24.1 0.00 0.00 0.00 33 996.2
20260504212547 25 220 6.4 24.1 0.00 0.00 0.00 33 996.3
20260504212046 25 221 4.8 22.5 0.00 0.00 0.00 33 996.4
20260504211551 25 182 4.8 22.5 0.00 0.00 0.00 34 996.3
20260504211047 25 233 3.2 14.5 0.00 0.00 0.00 35 996.4
20260504210545 25 227 8.0 14.5 0.00 0.00 0.00 36 996.6
20260504210054 25 183 3.2 14.5 0.00 0.00 0.00 33 996.6
20260504205548 25 0 3.2 14.5 0.00 0.00 0.00 34 996.7
20260504205046 25 187 6.4 14.5 0.00 0.00 0.00 32 996.7
20260504204559 26 217 4.8 16.1 0.00 0.00 0.00 33 996.7
20260504204048 26 257 3.2 19.3 0.00 0.00 0.00 33 996.7
20260504203548 25 227 8.0 27.4 0.00 0.00 0.00 34 996.9
20260504203054 25 229 11.3 27.4 0.00 0.00 0.00 34 996.8
20260504202548 26 221 6.4 19.3 0.00 0.00 0.00 32 997.0
20260504202046 26 216 8.0 17.7 0.00 0.00 0.00 30 997.0
20260504201554 26 234 4.8 16.1 0.00 0.00 0.00 34 997.0
20260504201047 26 223 3.2 12.9 0.00 0.00 0.00 32 997.3
20260504200546 26 257 4.8 14.5 0.00 0.00 0.00 32 997.3
20260504200052 25 194 4.8 19.3 0.00 0.00 0.00 31 997.2
20260504195546 25 209 6.4 19.3 0.00 0.00 0.00 33 997.2
20260504195047 25 199 8.0 19.3 0.00 0.00 0.00 33 997.2
20260504194556 25 215 9.7 22.5 0.00 0.00 0.00 35 997.4
20260504194047 25 249 6.4 22.5 0.00 0.00 0.00 32 997.4
20260504193548 25 215 8.0 25.7 0.00 0.00 0.00 32 997.4
20260504193050 25 248 9.7 25.7 0.00 0.00 0.00 34 997.4
20260504192546 25 199 11.3 25.7 0.00 0.00 0.00 32 997.4
20260504192047 25 184 6.4 19.3 0.00 0.00 0.00 32 997.5
20260504191601 25 271 6.4 17.7 0.00 0.00 0.00 30 997.5
20260504191044 25 262 6.4 22.5 0.00 0.00 0.00 32 997.6
20260504190544 24 204 11.3 22.5 0.00 0.00 0.00 35 997.5
20260504190050 25 211 11.3 22.5 0.00 0.00 0.00 30 997.5
20260504185543 25 209 8.0 24.1 0.00 0.00 0.00 32 997.7
20260504185042 25 252 6.4 24.1 0.00 0.00 0.00 35 997.6
20260504184550 24 259 11.3 24.1 0.00 0.00 0.00 36 997.8
20260504184044 25 224 11.3 24.1 0.00 0.00 0.00 31 997.8
20260504183546 25 232 6.4 20.9 0.00 0.00 0.00 35 997.9
20260504183053 25 264 6.4 16.1 0.00 0.00 0.00 35 998.0
20260504182545 24 192 4.8 16.1 0.00 0.00 0.00 35 998.0
20260504182047 24 217 8.0 24.1 0.00 0.00 0.00 37 998.0
20260504181552 24 208 6.4 24.1 0.00 0.00 0.00 36 998.1
20260504181045 23 231 8.0 17.7 0.00 0.00 0.00 33 998.2
20260504180547 23 208 9.7 29.0 0.00 0.00 0.00 35 998.1
20260504180055 23 211 8.0 29.0 0.00 0.00 0.00 35 998.2
20260504175548 23 204 8.0 20.9 0.00 0.00 0.00 34 998.1
20260504175048 23 217 8.0 29.0 0.00 0.00 0.00 34 998.3
20260504174550 23 245 8.0 29.0 0.00 0.00 0.00 37 998.3
20260504174043 23 214 4.8 22.5 0.00 0.00 0.00 34 998.4
20260504173545 23 263 9.7 24.1 0.00 0.00 0.00 37 998.6
20260504173052 23 184 11.3 24.1 0.00 0.00 0.00 37 998.6
20260504172542 23 191 6.4 20.9 0.00 0.00 0.00 35 998.7
20260504172048 23 188 8.0 20.9 0.00 0.00 0.00 34 998.9
20260504171558 22 198 8.0 22.5 0.00 0.00 0.00 39 998.9
20260504171044 22 212 12.9 25.7 0.00 0.00 0.00 36 999.0
20260504170548 22 203 8.0 25.7 0.00 0.00 0.00 35 998.9
20260504151048 21 217 8.0 17.7 0.00 0.00 0.00 38 1000.5
20260504150547 20 237 8.0 20.9 0.00 0.00 0.00 37 1000.5
20260504150108 20 194 11.3 20.9 0.00 0.00 0.00 42 1000.4
20260504141045 17 231 6.4 16.1 0.00 0.00 0.00 51 1000.9
20260504140545 17 190 8.0 16.1 0.00 0.00 0.00 52 1001.0
20260504130543 13 211 4.8 11.3 0.00 0.00 0.00 65 1001.6
20260504110545 7 209 1.6 6.4 0.00 0.00 0.00 89 1001.7
20260504100540 7 0 0.0 0.0 0.00 0.00 0.00 87 1001.8
20260504081554 10 0 0.0 0.0 0.00 0.00 0.00 76 1002.7
20260504081041 10 0 0.0 0.0 0.00 0.00 0.00 76 1002.8
20260504080543 10 0 0.0 1.6 0.00 0.00 0.00 76 1002.6
20260504080109 10 0 0.0 1.6 0.00 0.00 0.00 77 1002.7
20260504050546 12 0 0.0 0.0 0.00 0.00 0.00 72 1004.0
20260504045544 12 0 0.0 0.0 0.00 0.00 0.00 70 1004.0
20260504045047 12 0 0.0 0.0 0.00 0.00 0.00 69 1004.1
20260504044552 12 0 0.0 0.0 0.00 0.00 0.00 68 1004.2
20260504044048 12 0 0.0 3.2 0.00 0.00 0.00 67 1004.0
20260504043547 13 0 0.0 4.8 0.00 0.00 0.00 68 1004.1